Location: Drocourt
(49.0571°N, 1.7669°E)
Time: 13:04:16
(UTC+00:00)

SR - Pass Details

Date: 18 April 2024
Orbit: 579 x 859 km, 66.7° (Epoch: 28 May)

Event Time Altitude Azimuth Distance (km) Brightness Sun altitude
Rises 08:25:08 0° 326° (NW) 3,085 ? 32.9°
Reaches altitude 10° 08:28:24 10° 348° (NNW) 2,104 ? 33.4°
Maximum altitude 08:31:22 16° 27° (NNE) 1,668 ? 33.8°
Drops below altitude 10° 08:34:14 10° 67° (ENE) 2,002 ? 34.2°
Sets 08:37:13 0° 89° (E) 2,862 ? 34.7°
